Regional Weather Roundup
Issued by NWS

Home | Current Version | Previous Version | Text Only | Print | Product List | Glossary Off
Versions: 1 2 3 4 5 6 7 8 9 10 11 12 13 14 15 16 17 18 19 20 21 22 23 24 25 26 27 28 29 30 31 32 33 34 35 36 37 38 39 40 41 42 43 44 45 46 47 48 49 50

000
ASUS43 KOAX 210510
RWRNE

WEATHER ROUNDUP FOR NEBRASKA
NATIONAL WEATHER SERVICE OMAHA NE
1200 AM CDT SAT APR 21 2018

NOTES: SATELLITE DATA IS BEING USED TO AUGMENT CLOUD COVER ABOVE
       12000 FEET.
       "FAIR" INDICATES FEW OR NO CLOUDS BELOW 12,000 FEET WITH NO
       SIGNIFICANT WEATHER AND/OR OBSTRUCTIONS TO VISIBILITY.


NEZ001>004-019>022-054>056-210600-
NEBRASKA PANHANDLE

CITY           SKY/WX    TMP DP  RH WIND       PRES   REMARKS
SCOTTSBLUFF    CLOUDY    37  32  82 SE17      30.19R HAZE    WCI  27
ALLIANCE       MIX PCPN  37  37 100 SE17      30.20R WCI  27
CHADRON        CLOUDY    40  36  86 E3        30.22S
KIMBALL        HVY RAIN  36  36  99 SE14      30.16R WCI  27
SIDNEY         LGT RAIN  35  33  92 E15       30.19R FOG     WCI  25
$$

NEZ057>060-069>072-079>082-210600-
SOUTHWEST NEBRASKA

CITY           SKY/WX    TMP DP  RH WIND       PRES   REMARKS
NORTH PLATTE   LGT RAIN  41  38  89 SE10      30.23S
IMPERIAL       LGT RAIN  40  38  93 E14       30.19R WCI  32
LEXINGTON      CLOUDY    43  40  86 E8        30.25S
MCCOOK         LGT RAIN  43  41  93 E13       30.21R
OGALLALA       CLOUDY    40  39  94 E13       30.21S WCI  33
$$

NEZ005>010-023>029-035>040-094-210600-
NORTH CENTRAL NEBRASKA

CITY           SKY/WX    TMP DP  RH WIND       PRES   REMARKS
VALENTINE      CLOUDY    41  39  93 NE5       30.27F
AINSWORTH      CLOUDY    40  38  91 E8        30.27F WCI  35
BROKEN BOW     CLOUDY    44  37  76 E14       30.25R
O`NEILL        CLOUDY    48  36  63 E9        30.31S
ORD            CLOUDY    45  38  76 NE14      30.26F
THEDFORD       CLOUDY    41  39  93 E3        30.26S
$$

NEZ041-046>049-061>064-073>077-083>087-210600-
SOUTH CENTRAL NEBRASKA

CITY           SKY/WX    TMP DP  RH WIND       PRES   REMARKS
GRAND ISLAND   LGT RAIN  48  36  63 E15G28    30.29R
AURORA         RAIN      48  35  60 SE13G25   30.29F
HASTINGS       LGT RAIN  44  39  82 E13       30.25F
HEBRON         CLOUDY    53  28  37 SE7       30.28R
HOLDREGE       DRIZZLE   42  40  95 E15       30.25S
KEARNEY        LGT RAIN  42  39  89 E14       30.27F
YORK             N/A     48  32  53 NE7       30.29F
$$

NEZ011>018-030>034-042>045-210600-
NORTHEAST NEBRASKA

CITY           SKY/WX    TMP DP  RH WIND       PRES   REMARKS
NORFOLK        CLOUDY    47  35  63 E7        30.31R
ALBION         CLOUDY    49  32  51 NE9       30.30S
BLAIR          CLOUDY    52  30  42 E9        30.31R
COLUMBUS       CLOUDY    48  32  53 E7        30.33R
FREMONT        CLOUDY    54  29  39 E5        30.33R
TEKAMAH        CLOUDY    48  33  56 NE8       30.33R
WAYNE          CLOUDY    45  37  73 NE8       30.34R
$$

NEZ050>053-065>068-078-088>093-210600-
SOUTHEAST NEBRASKA

CITY           SKY/WX    TMP DP  RH WIND       PRES   REMARKS
LINCOLN        CLOUDY    53  27  36 E12       30.29S
OMAHA EPPLEY   CLOUDY    54  28  36 E14       30.32R
BEATRICE       CLOUDY    52  30  42 E8        30.27F
FALLS CITY     CLOUDY    50  26  39 E9        30.27S
NEBRASKA CITY  CLOUDY    52  29  42 E12       30.29S
PLATTSMOUTH    CLOUDY    53  28  38 E10       30.31R
$$

NEZ044-045-051>053-067-210600-
OMAHA AREA

CITY           SKY/WX    TMP DP  RH WIND       PRES   REMARKS
OMAHA EPPLEY   CLOUDY    54  28  36 E14       30.32R
BLAIR          CLOUDY    52  30  42 E9        30.31R
FREMONT        CLOUDY    54  29  39 E5        30.33R
MILLARD        CLOUDY    55  30  39 SE5       30.32R
OFFUTT AFB     CLOUDY    52  28  40 E8        30.31R
PLATTSMOUTH    CLOUDY    53  28  38 E10       30.31R
WAHOO          MOCLDY    50  28  42 E6        30.31R
$$




USA.gov is the U.S. government's official web portal to all federal, state and local government web resources and services.